Ellsworth AFB, SD

6:31 AM MST on January 17, 2018 (GMT -0700)
Ellsworth Air Force Base

Weather History for KRCA - January, 2014

Change the Weather History Date:

Monday, January 13, 2014

  Actual Average Record
Temperature  
Mean Temperature 35 °F -  
Max Temperature 46 °F 35 °F 53 °F (2003)
Min Temperature 24 °F 13 °F -11 °F (1997)
Degree Days  
Heating Degree Days 30    
Moisture  
Dew Point 30 °F    
Average Humidity 73    
Maximum Humidity 90    
Minimum Humidity 46    
Precipitation  
Precipitation 0.03 in - - ()
Sea Level Pressure  
Sea Level Pressure 29.74 in    
Wind  
Wind Speed 17 mph (WNW)    
Max Wind Speed 46 mph    
Max Gust Speed 58 mph    
Visibility 10 miles    
Events Rain , Snow    
Averages and records for this station are not official NWS values.
T = Trace of Precipitation, MM = Missing Value Source: NWS Daily Summary

Daily Weather History Graph

Daily Weather History Graph

Search for Another Location

Airport or City:

Trip Planner

Search our weather history database for the weather conditions in past years. The results will help you decide how hot, cold, wet, or windy it might be!

Date:

Astronomy

Jan. 13, 2014 Rise Set
Actual Time 7:25 AM MST 4:37 PM MST
Civil Twilight 6:52 AM MST 5:09 PM MST
Nautical Twilight 6:17 AM MST 5:45 PM MST
Astronomical Twilight 5:42 AM MST 6:20 PM MST
Moon 2:54 PM MST (1/13) 5:15 AM MST (1/13)
Length of Visible Light 10h 16m
Length of Day
9h 12m
Waxing Gibbous, 95% of the Moon is Illuminated
Jan 13
Waxing Gibbous
Jan 15
Full
Jan 23
Last Quarter
Jan 30
New
Feb 6
First Quarter

Hourly Weather History & Observations

Time (MST) Temp. Windchill Dew Point Humidity Pressure Visibility Wind Dir Wind Speed Gust Speed Precip Events Conditions
12:58 AM 25.9 °F - 23.4 °F 90% 29.85 in 10.0 mi WSW 2.3 mph - N/A   Overcast
1:58 AM 24.1 °F 18.2 °F 21.6 °F 90% 29.85 in 10.0 mi West 4.6 mph - N/A   Clear
2:58 AM 25.2 °F 17.3 °F 20.5 °F 82% 29.83 in 10.0 mi WSW 6.9 mph - N/A   Clear
3:58 AM 25.3 °F 18.5 °F 20.1 °F 81% 29.83 in 10.0 mi WSW 5.8 mph - N/A   Overcast
4:58 AM 30.0 °F 22.4 °F 21.4 °F 70% 29.78 in 10.0 mi WSW 8.1 mph - N/A   Mostly Cloudy
5:58 AM 32.5 °F 27.1 °F 22.8 °F 67% 29.76 in 10.0 mi West 5.8 mph - N/A   Overcast
6:58 AM 35.6 °F 28.0 °F 25.2 °F 66% 29.76 in 10.0 mi WNW 10.4 mph - N/A   Overcast
7:26 AM 35.6 °F 27.5 °F 26.6 °F 70% 29.69 in 10.0 mi West 11.5 mph - N/A Rain Light Rain
7:41 AM 33.8 °F 26.4 °F 28.4 °F 81% 29.69 in 10.0 mi West 9.2 mph - N/A   Overcast
7:58 AM 34.2 °F 26.8 °F 27.7 °F 77% 29.77 in 10.0 mi WSW 9.2 mph - 0.00 in   Overcast
8:58 AM 36.5 °F 30.3 °F 28.9 °F 74% 29.78 in 10.0 mi WSW 8.1 mph - N/A   Overcast
9:58 AM 38.1 °F 31.2 °F 29.3 °F 71% 29.75 in 10.0 mi WSW 10.4 mph - N/A   Mostly Cloudy
10:58 AM 43.2 °F 35.3 °F 28.8 °F 57% 29.73 in 10.0 mi WNW 17.3 mph - N/A   Mostly Cloudy
11:31 AM 44.6 °F 34.9 °F 28.4 °F 53% 29.64 in 10.0 mi WNW 28.8 mph 47.2 mph N/A Rain Light Rain
11:49 AM 44.6 °F 36.1 °F 30.2 °F 57% 29.64 in 10.0 mi WNW 21.9 mph 38.0 mph N/A   Mostly Cloudy
11:58 AM 43.9 °F 35.2 °F 29.3 °F 57% 29.71 in 10.0 mi WNW 21.9 mph 32.2 mph 0.00 in   Mostly Cloudy
12:30 PM 44.6 °F 33.9 °F 32.0 °F 61% 29.62 in 10.0 mi WNW 35.7 mph 46.0 mph N/A   Light Drizzle
12:50 PM 44.6 °F 36.4 °F 32.0 °F 61% 29.64 in 10.0 mi NW 20.7 mph 36.8 mph N/A   Overcast
12:58 PM 44.1 °F 37.1 °F 30.6 °F 59% 29.73 in 10.0 mi WNW 15.0 mph 26.5 mph 0.00 in   Overcast
1:28 PM 44.6 °F 35.9 °F 32.0 °F 61% 29.65 in 10.0 mi WNW 23.0 mph 33.4 mph N/A   Light Drizzle
1:52 PM 42.8 °F 36.2 °F 33.8 °F 70% 29.66 in 10.0 mi West 12.7 mph - N/A   Overcast
1:58 PM 42.6 °F 36.8 °F 34.0 °F 71% 29.74 in 10.0 mi West 10.4 mph - 0.00 in   Overcast
2:06 PM 42.8 °F 36.6 °F 35.6 °F 76% 29.65 in 10.0 mi West 11.5 mph - N/A Rain Light Rain
2:11 PM 41.0 °F 34.7 °F 35.6 °F 81% 29.66 in 10.0 mi West 10.4 mph - N/A Rain Light Rain
2:21 PM 41.0 °F 33.5 °F 35.6 °F 81% 29.66 in 10.0 mi West 13.8 mph - N/A Rain Light Rain
2:31 PM 41.0 °F 33.1 °F 35.6 °F 81% 29.66 in 10.0 mi West 15.0 mph - N/A Rain Light Rain
2:36 PM 41.0 °F 33.1 °F 35.6 °F 81% 29.67 in 10.0 mi West 15.0 mph 24.2 mph N/A Rain Light Rain
2:37 PM 41.0 °F 33.9 °F 35.6 °F 81% 29.67 in 10.0 mi West 12.7 mph 24.2 mph N/A Rain Light Rain
2:42 PM 41.0 °F 33.9 °F 35.6 °F 81% 29.67 in 10.0 mi West 12.7 mph 24.2 mph N/A Rain Light Rain
2:47 PM 41.0 °F 34.3 °F 35.6 °F 81% 29.67 in 10.0 mi West 11.5 mph 21.9 mph N/A Rain Light Rain
2:54 PM 41.0 °F 33.9 °F 35.6 °F 81% 29.67 in 10.0 mi West 12.7 mph 21.9 mph N/A   Overcast
2:58 PM 41.0 °F 33.5 °F 35.6 °F 81% 29.75 in 10.0 mi West 13.8 mph - 0.00 in   Overcast
3:04 PM 41.0 °F 34.3 °F 35.6 °F 81% 29.67 in 10.0 mi West 11.5 mph - N/A Rain Light Rain
3:36 PM 41.0 °F 34.3 °F 35.6 °F 81% 29.65 in 10.0 mi WSW 11.5 mph - N/A   Overcast
3:58 PM 39.9 °F 31.4 °F 35.2 °F 83% 29.72 in 10.0 mi SW 16.1 mph 24.2 mph 0.01 in   Overcast
4:12 PM 42.8 °F 34.0 °F 32.0 °F 66% 29.63 in 10.0 mi NW 20.7 mph 29.9 mph N/A   Overcast
4:15 PM 42.8 °F 33.5 °F 32.0 °F 66% 29.64 in 10.0 mi West 23.0 mph 39.1 mph N/A   Overcast
4:18 PM 44.6 °F 34.1 °F 32.0 °F 61% 29.63 in 10.0 mi NW 34.5 mph 41.4 mph N/A   Overcast
4:19 PM 44.6 °F 34.4 °F 32.0 °F 61% 29.63 in 10.0 mi NNW 32.2 mph 41.4 mph N/A Rain Light Rain
4:35 PM 46.4 °F 38.7 °F 26.6 °F 46% 29.63 in 10.0 mi North 20.7 mph 28.8 mph N/A   Overcast
4:58 PM 45.0 °F 38.2 °F 28.8 °F 53% 29.71 in 10.0 mi North 15.0 mph 20.7 mph 0.00 in   Overcast
5:12 PM 44.6 °F 36.1 °F 28.4 °F 53% 29.66 in 10.0 mi North 21.9 mph 28.8 mph N/A Rain Light Rain
5:35 PM 41.0 °F 31.1 °F 32.0 °F 70% 29.68 in 10.0 mi NNW 23.0 mph 33.4 mph N/A   Overcast
5:46 PM 41.0 °F 31.1 °F 32.0 °F 70% 29.68 in 10.0 mi NNW 23.0 mph 29.9 mph N/A   Light Drizzle
5:58 PM 40.6 °F 28.5 °F 34.0 °F 77% 29.74 in 10.0 mi NW 35.7 mph 48.3 mph 0.01 in Rain Light Rain
6:27 PM 39.2 °F 26.6 °F 33.8 °F 81% 29.67 in 10.0 mi NW 34.5 mph 42.6 mph N/A   Overcast
6:36 PM 39.2 °F 25.8 °F 33.8 °F 81% 29.67 in 10.0 mi WNW 40.3 mph 47.2 mph N/A   Light Drizzle
6:50 PM 39.2 °F 26.8 °F 33.8 °F 81% 29.69 in 10.0 mi NW 33.4 mph 44.9 mph N/A   Mostly Cloudy
6:58 PM 39.7 °F 28.5 °F 33.8 °F 79% 29.76 in 10.0 mi WNW 27.6 mph 40.3 mph 0.01 in   Scattered Clouds
7:08 PM 39.2 °F 27.2 °F 32.0 °F 75% 29.70 in 10.0 mi NW 31.1 mph 40.3 mph N/A Rain Light Rain
7:19 PM 39.2 °F 27.2 °F 32.0 °F 75% 29.69 in 10.0 mi NW 31.1 mph 40.3 mph N/A   Scattered Clouds
7:20 PM 39.2 °F 27.4 °F 32.0 °F 75% 29.69 in 10.0 mi NW 29.9 mph 41.4 mph N/A Rain Light Rain
7:28 PM 39.2 °F 28.0 °F 32.0 °F 75% 29.69 in 10.0 mi NW 26.5 mph 41.4 mph N/A   Scattered Clouds
7:58 PM 39.2 °F 26.3 °F 30.2 °F 70% 29.77 in 10.0 mi NW 36.8 mph 50.6 mph 0.00 in Rain Light Rain
8:04 PM 39.2 °F 26.1 °F 30.2 °F 70% 29.71 in 10.0 mi NW 38.0 mph 50.6 mph N/A   Clear
8:35 PM 37.4 °F 23.5 °F 28.4 °F 70% 29.74 in 10.0 mi NNW 39.1 mph 51.8 mph N/A Rain Light Rain
8:39 PM 37.4 °F 23.5 °F 28.4 °F 70% 29.75 in 10.0 mi NNW 39.1 mph 51.8 mph N/A   Partly Cloudy
8:50 PM 37.4 °F 22.5 °F 28.4 °F 70% 29.76 in 10.0 mi NNW 46.0 mph 57.5 mph N/A Rain Light Rain
8:58 PM 36.9 °F 22.2 °F 28.2 °F 71% 29.85 in 10.0 mi NNW 42.6 mph 57.5 mph 0.00 in Rain Light Rain
9:03 PM 37.4 °F 23.3 °F 28.4 °F 70% 29.79 in 10.0 mi NNW 40.3 mph 56.4 mph N/A Rain Light Rain
9:16 PM 35.6 °F 21.3 °F 28.4 °F 75% 29.82 in 10.0 mi NNW 36.8 mph 51.8 mph N/A   Mostly Cloudy
9:24 PM 35.6 °F 20.8 °F 28.4 °F 75% 29.82 in 10.0 mi NNW 40.3 mph 50.6 mph N/A Rain Light Rain
9:58 PM 34.2 °F 20.6 °F 29.5 °F 83% 29.92 in 10.0 mi NNW 29.9 mph 39.1 mph 0.00 in Rain Light Rain
9:59 PM 33.8 °F 19.6 °F 30.2 °F 87% 29.85 in 10.0 mi NNW 32.2 mph 39.1 mph N/A   Mostly Cloudy
10:58 PM 34.2 °F 20.6 °F 25.0 °F 69% 29.96 in 10.0 mi NW 29.9 mph 43.7 mph 0.00 in   Overcast
11:07 PM 32.0 °F 17.4 °F 28.4 °F 87% 29.90 in 10.0 mi NW 31.1 mph 38.0 mph N/A Rain Light Rain
11:14 PM 32.0 °F 17.2 °F 26.6 °F 80% 29.90 in 10.0 mi NW 32.2 mph 39.1 mph N/A   Mostly Cloudy
11:16 PM 32.0 °F 17.2 °F 26.6 °F 80% 29.90 in 10.0 mi NW 32.2 mph 40.3 mph N/A Rain Light Rain
11:23 PM 32.0 °F 17.4 °F 28.4 °F 87% 29.92 in 10.0 mi NW 31.1 mph 40.3 mph N/A Rain Light Rain
11:33 PM 32.0 °F 17.0 °F 28.4 °F 87% 29.93 in 10.0 mi NNW 33.4 mph 40.3 mph N/A   Mostly Cloudy
11:39 PM 32.0 °F 17.0 °F 26.6 °F 80% 29.93 in 10.0 mi NNW 33.4 mph 47.2 mph N/A Rain Light Rain
11:58 PM 32.2 °F 17.6 °F 27.0 °F 81% 30.03 in 10.0 mi NNW 31.1 mph 40.3 mph 0.00 in Snow Light Snow